Regional Weather Roundup
Issued by NWS

Home | Current Version | Previous Version | Text Only | Print | Product List | Glossary On
Versions: 1 2 3 4 5 6 7 8 9 10 11 12 13 14 15 16 17 18 19 20 21 22 23 24 25 26 27 28 29 30 31 32 33 34 35 36 37 38 39 40 41 42 43 44 45 46 47 48 49 50
000
ASUS43 KDTX 181910
RWRMI
MICHIGAN HOURLY REGIONAL WEATHER ROUNDUP
NATIONAL WEATHER SERVICE DETROIT/PONTIAC MI
200 PM EST MON DEC 18 2017

NOTE: "FAIR" INDICATES FEW OR NO CLOUDS BELOW 12,000 FEET WITH NO
SIGNIFICANT WEATHER AND/OR OBSTRUCTION TO VISIBILITY.

MIZ047>049-052>055-059>063-066>070-074>076-081>083-182000-
SOUTHEAST LOWER MICHIGAN

CITY           SKY/WX    TMP DP  RH WIND       PRES   REMARKS
ADRIAN         CLOUDY    41  39  93 W8        29.89
ALMA           CLOUDY    38  38 100 SW12      29.82F FOG     WCI  30
ANN ARBOR      FOG       38  38 100 S9        29.87F VSB 1   WCI  31
BAD AXE        LGT SNOW  36  36  99 SW10      29.80F WCI  29
CARO           CLOUDY    38  37  99 SW10      29.81F FOG     WCI  30
DETROIT CITY   CLOUDY    40  38  93 W9        29.87F FOG     WCI  34
DETROIT        CLOUDY    41  38  89 SW13      29.88F FOG
FLINT          CLOUDY    39  37  92 SW9       29.85S FOG     WCI  33
GROSSE ILE     CLOUDY    40  38  93 SW9       29.87F FOG     WCI  34
HILLSDALE      CLOUDY    39  37  93 SW8       29.87F FOG     WCI  34
HOWELL         CLOUDY    39  39 100 SW7       29.85S FOG     WCI  34

CITY           SKY/WX    TMP DP  RH WIND       PRES   REMARKS
JACKSON        CLOUDY    41  38  89 SW13      29.86S FOG
LAMBERTVILLE   CLOUDY    43  40  89 SW9       29.89F
LANSING        LGT RAIN  38  38 100 SW10      29.84F FOG     WCI  31
LAPEER         DRIZZLE   39  38  97 W12       29.83F WCI  32
MASON          CLOUDY    40  37  88 SW6       29.85F FOG
MONROE         CLOUDY    42  39  89 SW13      29.87F
MT. CLEMENS    CLOUDY    39  39 100 SW10      29.84F FOG     WCI  32
PONTIAC        FOG       38  38 100 SW10      29.84F VSB 1   WCI  31
PORT HOPE        N/A     35  34  96 SW3       29.78F
PORT HURON     CLOUDY    37  36  93 SW5       29.84F FOG     WCI  34
TRI CITIES     FOG       37  37 100 SW12      29.82F VSB 1/2 WCI  29
MIDLAND        FOG       37  37  99 SW7       29.81S VSB 1   WCI  32
TROY           CLOUDY    39  38  94 SW7       29.87F FOG     WCI  34
SAGINAW HB     CLOUDY    37  36  93 SW10      29.82S FOG     WCI  30
$$
MIZ043>046-050>051-056>058-064>065-071>073-077>080-182000-
SOUTHWEST LOWER MICHIGAN

CITY           SKY/WX    TMP DP  RH WIND       PRES   REMARKS
BATTLE CREEK   CLOUDY    40  39  97 SW14      29.85F FOG     WCI  32
BENTON HARBOR  LGT RAIN  43  40  89 SW17      29.87F FOG
BIG RAPIDS     CLOUDY    34  33  97 W8        29.79F FOG     WCI  27
COLDWATER      RAIN      42  42 100 SW10G16   29.88F
FREMONT        CLOUDY    36  33  90 W6        29.80F FOG     WCI  31
HOLLAND        CLOUDY    41  37  86 W17       29.84F
GRAND RAPIDS   CLOUDY    39  37  92 W13       29.83F FOG     WCI  31
IONIA          CLOUDY    39  37  94 W12       29.83F WCI  31
KALAMAZOO      LGT RAIN  41  39  93 SW10      29.86F FOG
LUDINGTON      CLOUDY    35  32  88 SW10G17   29.79F FOG     WCI  27
MARSHALL       CLOUDY    40  39  98 SW10      29.85F FOG     WCI  33
MOUNT PLEASANT CLOUDY    37  36  96 W9        29.80F FOG     WCI  31
MUSKEGON       CLOUDY    40  34  79 W10       29.83F WCI  33
SOUTH HAVEN    CLOUDY    43  41  94 W12G18    29.86F FOG
$$
MIZ016>042-182000-
NORTHERN LOWER MICHIGAN

CITY           SKY/WX    TMP DP  RH WIND       PRES   REMARKS
ALPENA         CLOUDY    32  31  96 S3        29.78F FOG
BEAVER ISLAND  CLOUDY    35  32  89 SW12G18   29.73F FOG     WCI  27
BELLAIRE       CLOUDY    34  33  96 S5        29.77F FOG     WCI  30
CADILLAC       CLOUDY    32  31  99 W12       29.76F FOG     WCI  23
CHARLEVOIX     CLOUDY    34  34 100 S12       29.77F FOG     WCI  25
FRANKFORT      CLOUDY    36  33  89 SW7       29.77F FOG     WCI  31
GAYLORD        FOG       31  29  92 SW9       29.73F VSB 1   WCI  23
GRAYLING       FOG       32  31  94 SW5       29.75F VSB 1/2 WCI  27
HARBOR SPRINGS CLOUDY    33  33  99 SW12G17   29.74S FOG     WCI  25
HOUGHTON LAKE  CLOUDY    32  31  96 SW7       29.76F FOG     WCI  26
MANISTEE       CLOUDY    36  33  89 SW9       29.79F FOG     WCI  29
OSCODA         LGT SNOW  31  30  96 SW6       29.78F WCI  25
PELLSTON       CLOUDY    34  32  92 SW6       29.74F FOG     WCI  29
ROGERS CITY    CLOUDY    33  30  90 S5        29.77F FOG     WCI  28
TRAVERSE CITY  CLOUDY    34  31  88 SW6       29.77F FOG     WCI  29
$$
MIZ007>008-015-182000-
EASTERN UPPER MICHIGAN

CITY           SKY/WX    TMP DP  RH WIND       PRES   REMARKS
MACKINAC ISLAN FOG       34  34 100 SW10      29.72F VSB 1/2 WCI  26
NEWBERRY       CLOUDY    31  31  98 SW15      29.70S FOG     WCI  20
S. S. MARIE    FOG       29  27  92 CALM      29.72F VSB 1/2
MUNISING         N/A     31  29  92 S5        29.69F WCI  26
$$
MIZ004>006-011>014-085-182000-
CENTRAL UPPER MICHIGAN

CITY           SKY/WX    TMP DP  RH WIND       PRES   REMARKS
MANISTIQUE     CLOUDY    31  26  81 SW5       29.72F HAZE    WCI  26
ESCANABA       CLOUDY    33  26  75 SW9       29.73F WCI  25
MENOMINEE      CLOUDY    33  28  81 W8        29.77S WCI  26
SAWYER-GWINN   PTSUNNY   28  28 100 SW9       29.67F WCI  20
$$
MIZ001>003-009>011-084-182000-
WESTERN UPPER MICHIGAN

CITY           SKY/WX    TMP DP  RH WIND       PRES   REMARKS
IRON MOUNTAIN  CLOUDY    33  27  78 W7        29.69F WCI  27
HOUGHTON       CLOUDY    33  26  75 S7        29.60F WCI  27
COPPER HARBOR    N/A     34  26  72 W6        29.62F WCI  29
IRONWOOD       CLOUDY    34  27  75 SW10      29.63F WCI  26
$$

ABBREVIATIONS USED IN REMARKS
   TC - TEMPERATURE IN CELSIUS
  WCI - WIND CHILL INDEX
   HX - HEAT INDEX
  VSB - VISIBILITY




USA.gov is the U.S. government's official web portal to all federal, state and local government web resources and services.